FW7257 Weather Reports


Display with metric or nautical units.
time (UTC)temp
F
wind
direction
speed
MPH
gust
MPH
rain 1hr
in
rain 24hr
in
rain mn
in
humidity
%
barometer
mb
20260510004338 66 0 0.0 0.0 0.00 0.00 0.00 81 1014.6
20260510003841 66 0 0.0 0.0 0.00 0.00 0.00 81 1014.5
20260510003340 66 0 0.0 0.0 0.00 0.00 0.00 81 1014.5
20260510002839 66 0 0.0 0.0 0.00 0.00 0.00 80 1014.5
20260510002340 67 0 0.0 0.0 0.00 0.00 0.00 80 1014.4
20260510001841 67 0 0.0 0.0 0.00 0.00 0.00 79 1014.4
20260510001335 67 0 0.0 0.0 0.00 0.00 0.00 79 1014.4
20260510000841 67 0 0.0 0.0 0.00 0.00 0.00 79 1014.4
20260510000341 68 0 0.0 0.0 0.00 0.00 0.00 78 1014.3
20260509235838 68 0 0.0 0.0 0.00 0.00 0.00 78 1014.3
20260509235340 68 0 0.0 0.0 0.00 0.00 0.00 77 1014.2
20260509234835 68 0 0.0 0.0 0.00 0.00 0.00 77 1014.3
20260509234338 68 0 0.0 1.0 0.00 0.00 0.00 77 1014.1
20260509233838 69 0 0.0 2.0 0.00 0.00 0.00 76 1013.9
20260509233339 69 0 0.0 2.0 0.00 0.00 0.00 76 1013.8
20260509232841 69 0 0.0 1.0 0.00 0.00 0.00 76 1013.7
20260509232338 69 0 0.0 1.0 0.00 0.00 0.00 75 1013.6
20260509231837 70 0 0.0 1.0 0.00 0.00 0.00 75 1013.7
20260509231340 70 0 0.0 1.0 0.00 0.00 0.00 75 1013.9
20260509230841 70 0 0.0 1.0 0.00 0.00 0.00 75 1013.7
20260509230338 70 0 0.0 1.0 0.00 0.00 0.00 75 1013.8
20260509225836 70 0 0.0 1.0 0.00 0.00 0.00 74 1013.7
20260509225340 70 0 0.0 0.0 0.00 0.00 0.00 73 1013.7
20260509224837 71 0 0.0 2.0 0.00 0.00 0.00 73 1013.7
20260509224336 71 0 0.0 2.0 0.00 0.00 0.00 72 1013.7
20260509223842 71 0 0.0 1.0 0.00 0.00 0.00 72 1013.6
20260509223339 71 0 0.0 3.0 0.00 0.00 0.00 72 1013.6
20260509222838 71 0 0.0 3.0 0.00 0.00 0.00 72 1013.5
20260509222340 71 0 0.0 2.0 0.00 0.00 0.00 73 1013.5
20260509221840 71 0 0.0 2.0 0.00 0.00 0.00 72 1013.5
20260509221342 71 237 1.0 2.0 0.00 0.00 0.00 72 1013.5
20260509220837 72 0 0.0 2.0 0.00 0.00 0.00 71 1013.4
20260509220344 72 0 0.0 1.0 0.00 0.00 0.00 71 1013.5
20260509215840 72 0 0.0 0.0 0.00 0.00 0.00 71 1013.5
20260509215341 72 0 0.0 2.0 0.00 0.00 0.00 71 1013.5
20260509214842 72 0 0.0 2.0 0.00 0.00 0.00 71 1013.5
20260509214336 72 213 1.0 2.0 0.00 0.00 0.00 71 1013.5
20260509213842 72 214 1.0 1.0 0.00 0.00 0.00 71 1013.4
20260509213342 72 216 0.0 1.0 0.00 0.00 0.00 72 1013.2
20260509212839 72 0 0.0 1.0 0.00 0.00 0.00 71 1013.2
20260509212342 72 0 0.0 1.0 0.00 0.00 0.00 70 1013.0
20260509211840 72 0 0.0 1.0 0.00 0.00 0.00 71 1012.9
20260509211341 72 0 0.0 2.0 0.00 0.00 0.00 71 1012.9
20260509210838 72 0 0.0 2.0 0.00 0.00 0.00 71 1012.9
20260509210337 72 243 1.0 3.0 0.00 0.00 0.00 70 1012.9
20260509205836 72 0 0.0 3.0 0.00 0.00 0.00 71 1012.8
20260509205341 72 212 1.0 3.0 0.00 0.00 0.00 71 1013.1
20260509204841 72 0 0.0 3.0 0.00 0.00 0.00 71 1013.1
20260509204338 72 233 0.0 2.0 0.00 0.00 0.00 70 1013.3
20260509203836 72 0 0.0 1.0 0.00 0.00 0.00 71 1013.0
20260509203341 72 0 0.0 2.0 0.00 0.00 0.00 70 1013.2
20260509202841 72 0 0.0 5.0 0.00 0.00 0.00 70 1013.2
20260509202339 72 229 1.0 5.0 0.00 0.00 0.00 69 1013.3
20260509201838 72 0 0.0 3.0 0.00 0.00 0.00 70 1013.2
20260509201337 72 210 1.0 3.0 0.00 0.00 0.00 71 1013.4
20260509200839 72 0 0.0 3.0 0.00 0.00 0.00 71 1013.4
20260509200341 72 218 1.0 3.0 0.00 0.00 0.00 70 1013.5
20260509195841 72 236 1.0 3.0 0.00 0.00 0.00 71 1013.4
20260509195337 72 237 2.0 3.0 0.00 0.00 0.00 71 1013.5
20260509194838 72 284 2.0 1.0 0.00 0.00 0.00 71 1013.4
20260509194337 72 0 0.0 3.0 0.00 0.00 0.00 70 1013.5
20260509193837 72 0 0.0 3.0 0.00 0.00 0.00 71 1013.4
20260509193343 71 232 1.0 3.0 0.00 0.00 0.00 70 1013.4
20260509192839 72 0 0.0 2.0 0.00 0.00 0.00 70 1013.6
20260509192342 72 232 1.0 2.0 0.00 0.00 0.00 70 1013.5
20260509191842 72 191 0.0 2.0 0.00 0.00 0.00 70 1013.5
20260509191341 72 191 0.0 2.0 0.00 0.00 0.00 69 1013.6
20260509190840 73 191 1.0 1.0 0.00 0.00 0.00 70 1013.6
20260509190338 72 0 0.0 2.0 0.00 0.00 0.00 71 1013.5
20260509185837 72 196 1.0 2.0 0.00 0.00 0.00 71 1013.3
20260509185336 72 204 1.0 2.0 0.00 0.00 0.00 69 1013.4
20260509184837 72 210 0.0 2.0 0.00 0.00 0.00 70 1013.6
20260509184337 72 189 0.0 2.0 0.00 0.00 0.00 70 1013.5
20260509183844 72 205 0.0 3.0 0.00 0.00 0.00 72 1013.5
20260509183340 71 178 1.0 3.0 0.00 0.00 0.00 72 1013.6
20260509182838 71 198 0.0 2.0 0.00 0.00 0.00 73 1013.9
20260509182339 71 0 0.0 4.0 0.00 0.00 0.00 73 1013.9
20260509181843 70 0 0.0 4.0 0.00 0.00 0.00 73 1013.8
20260509181343 71 174 1.0 2.0 0.00 0.00 0.00 73 1013.9
20260509180838 70 167 1.0 2.0 0.00 0.00 0.00 74 1013.8
20260509180340 70 169 0.0 2.0 0.00 0.00 0.00 74 1013.8
20260509175838 70 152 1.0 2.0 0.00 0.00 0.00 75 1013.6
20260509175339 70 195 1.0 1.0 0.00 0.00 0.00 76 1013.6
20260509174838 70 0 0.0 1.0 0.00 0.00 0.00 75 1013.7
20260509174341 69 0 0.0 1.0 0.00 0.00 0.00 77 1013.7
20260509173840 68 0 0.0 1.0 0.00 0.00 0.00 81 1013.9
20260509173344 67 0 0.0 1.0 0.00 0.00 0.00 81 1013.9
20260509172840 67 0 0.0 1.0 0.00 0.00 0.00 81 1014.0
20260509172338 66 0 0.0 1.0 0.00 0.00 0.00 83 1014.2
20260509171839 66 0 0.0 1.0 0.00 0.00 0.00 83 1014.2
20260509171343 66 0 0.0 1.0 0.00 0.00 0.00 82 1014.4
20260509170845 66 0 0.0 1.0 0.00 0.00 0.00 82 1014.3
20260509170340 66 0 0.0 1.0 0.00 0.00 0.00 82 1014.4
20260509165841 66 0 0.0 0.0 0.00 0.00 0.00 83 1014.4
20260509165342 66 0 0.0 1.0 0.00 0.00 0.00 84 1014.2
20260509164842 66 0 0.0 1.0 0.00 0.00 0.00 83 1014.3
20260509164341 66 0 0.0 1.0 0.00 0.00 0.00 83 1014.2
20260509163836 66 0 0.0 2.0 0.00 0.00 0.00 85 1014.5
20260509163344 65 0 0.0 2.0 0.00 0.00 0.00 85 1014.4
20260509162838 65 0 0.0 1.0 0.00 0.00 0.00 85 1014.4
20260509162338 65 0 0.0 1.0 0.00 0.00 0.00 85 1014.5
20260509161835 65 0 0.0 1.0 0.00 0.00 0.00 86 1014.4
20260509161343 64 0 0.0 1.0 0.00 0.00 0.00 86 1014.4
20260509160840 64 0 0.0 1.0 0.00 0.00 0.00 87 1014.4
20260509160339 64 0 0.0 1.0 0.00 0.00 0.00 86 1014.4
20260509155836 64 0 0.0 1.0 0.00 0.00 0.00 87 1014.4
20260509155341 63 0 0.0 1.0 0.00 0.00 0.00 87 1014.4
20260509154841 63 0 0.0 1.0 0.00 0.00 0.00 88 1014.2
20260509154342 63 0 0.0 1.0 0.00 0.00 0.00 88 1014.2
20260509153841 63 0 0.0 1.0 0.00 0.00 0.00 87 1014.3
20260509153339 63 175 0.0 1.0 0.00 0.00 0.00 87 1014.4
20260509152836 63 0 0.0 1.0 0.00 0.00 0.00 87 1014.6
20260509152340 63 0 0.0 1.0 0.00 0.00 0.00 86 1014.8
20260509151840 64 0 0.0 1.0 0.00 0.00 0.00 86 1014.8
20260509151339 64 0 0.0 0.0 0.00 0.00 0.00 86 1014.9
20260509150841 63 0 0.0 0.0 0.00 0.00 0.00 86 1014.8
20260509150341 63 0 0.0 1.0 0.00 0.00 0.00 86 1014.9
20260509145838 63 0 0.0 1.0 0.00 0.00 0.00 87 1014.9
20260509145340 63 0 0.0 0.0 0.00 0.00 0.00 87 1014.9
20260509144841 63 0 0.0 0.0 0.00 0.00 0.00 87 1014.9
20260509144337 63 0 0.0 0.0 0.00 0.00 0.00 86 1014.9
20260509143837 63 0 0.0 0.0 0.00 0.00 0.00 87 1015.1
20260509143342 63 0 0.0 1.0 0.00 0.00 0.00 87 1015.0
20260509142837 62 0 0.0 1.0 0.00 0.00 0.00 87 1014.8
20260509142336 62 0 0.0 0.0 0.00 0.00 0.00 87 1014.8
20260509141838 62 0 0.0 1.0 0.00 0.00 0.00 86 1014.9
20260509141338 62 0 0.0 1.0 0.00 0.00 0.00 86 1014.8
20260509140839 62 0 0.0 1.0 0.00 0.00 0.00 86 1014.8
20260509140338 63 0 0.0 1.0 0.00 0.00 0.00 86 1014.7
20260509135837 62 0 0.0 1.0 0.00 0.00 0.00 86 1014.4
20260509135340 62 0 0.0 1.0 0.00 0.00 0.00 86 1014.2
20260509134841 62 229 0.0 1.0 0.00 0.00 0.00 86 1014.0
20260509134338 62 0 0.0 1.0 0.00 0.00 0.00 86 1013.9
20260509133838 62 0 0.0 3.0 0.00 0.00 0.00 86 1013.7
20260509133342 62 0 0.0 3.0 0.00 0.00 0.00 86 1013.6
20260509132837 62 233 1.0 1.0 0.00 0.00 0.00 86 1013.8
20260509132341 63 238 1.0 1.0 0.00 0.00 0.00 85 1014.0
20260509131836 63 240 0.0 1.0 0.00 0.00 0.00 86 1013.9
20260509131338 63 0 0.0 1.0 0.00 0.00 0.00 86 1014.1
20260509130839 63 0 0.0 1.0 0.00 0.00 0.00 86 1013.9
20260509130338 62 0 0.0 1.0 0.00 0.00 0.00 86 1013.8
20260509125841 62 0 0.0 1.0 0.00 0.00 0.00 87 1013.6
20260509125338 62 0 0.0 1.0 0.00 0.00 0.00 87 1013.6
20260509124838 61 0 0.0 1.0 0.00 0.00 0.00 87 1013.6
20260509124344 61 0 0.0 1.0 0.00 0.00 0.00 87 1013.6
20260509123837 61 0 0.0 1.0 0.00 0.00 0.00 88 1013.7
20260509123338 61 0 0.0 1.0 0.00 0.00 0.00 88 1013.7
20260509122840 61 0 0.0 1.0 0.00 0.00 0.00 88 1013.6
20260509122342 61 199 0.0 1.0 0.00 0.00 0.00 88 1013.7
20260509121838 60 199 0.0 1.0 0.00 0.00 0.00 88 1013.5
20260509121340 60 198 0.0 1.0 0.00 0.00 0.00 88 1013.5
20260509120839 60 0 0.0 1.0 0.00 0.00 0.00 88 1013.5
20260509120338 60 0 0.0 0.0 0.00 0.00 0.00 88 1013.7
20260509115842 60 0 0.0 0.0 0.00 0.00 0.00 88 1013.8
20260509115336 60 0 0.0 0.0 0.00 0.00 0.00 88 1013.8
20260509114838 60 0 0.0 1.0 0.00 0.00 0.00 88 1013.7
20260509114337 60 0 0.0 1.0 0.00 0.00 0.00 89 1013.7
20260509113843 60 0 0.0 1.0 0.00 0.00 0.00 89 1013.7
20260509113338 60 0 0.0 3.0 0.00 0.00 0.00 89 1013.7
20260509112841 60 0 0.0 3.0 0.00 0.00 0.00 89 1013.8
20260509112341 60 0 0.0 0.0 0.00 0.00 0.00 89 1013.6
20260509111840 60 0 0.0 0.0 0.00 0.00 0.00 89 1013.9
20260509111339 59 0 0.0 0.0 0.00 0.00 0.00 89 1013.7
20260509110836 59 0 0.0 0.0 0.00 0.00 0.00 88 1013.3
20260509110341 59 0 0.0 1.0 0.00 0.00 0.00 88 1013.7
20260509105838 59 0 0.0 1.0 0.00 0.00 0.00 88 1013.3
20260509105342 59 0 0.0 1.0 0.00 0.00 0.00 88 1013.5
20260509104835 59 0 0.0 1.0 0.00 0.00 0.00 88 1013.4
20260509104339 59 0 0.0 1.0 0.00 0.00 0.00 88 1013.3
20260509103837 59 0 0.0 1.0 0.00 0.00 0.00 88 1013.3
20260509103342 59 0 0.0 1.0 0.00 0.00 0.00 88 1013.2
20260509102836 59 0 0.0 1.0 0.00 0.00 0.00 89 1013.2
20260509102343 59 0 0.0 1.0 0.00 0.00 0.00 89 1013.4
20260509101838 59 0 0.0 0.0 0.00 0.00 0.00 89 1013.6
20260509101339 59 0 0.0 0.0 0.00 0.00 0.00 89 1013.6
20260509100836 59 0 0.0 0.0 0.00 0.00 0.00 89 1013.7
20260509100340 59 0 0.0 0.0 0.00 0.00 0.00 89 1014.1
20260509095839 59 0 0.0 0.0 0.00 0.00 0.00 89 1014.1
20260509095336 59 0 0.0 0.0 0.00 0.00 0.00 89 1014.0
20260509094837 59 0 0.0 0.0 0.00 0.00 0.00 90 1013.7
20260509094341 59 0 0.0 0.0 0.00 0.00 0.00 90 1014.0
20260509093839 59 0 0.0 0.0 0.00 0.00 0.00 90 1014.2
20260509093336 59 0 0.0 0.0 0.00 0.00 0.00 90 1014.1
20260509092837 58 0 0.0 0.0 0.00 0.00 0.00 90 1013.9
20260509092338 58 0 0.0 0.0 0.00 0.00 0.00 90 1013.7
20260509091839 58 0 0.0 0.0 0.00 0.00 0.00 90 1013.8
20260509091335 58 0 0.0 0.0 0.00 0.00 0.00 90 1013.9
20260509090838 58 0 0.0 0.0 0.00 0.00 0.00 90 1013.8
20260509090338 58 0 0.0 0.0 0.00 0.00 0.00 90 1013.5
20260509085836 58 0 0.0 0.0 0.00 0.00 0.00 90 1013.7
20260509085335 58 0 0.0 0.0 0.00 0.00 0.00 90 1013.6
20260509084836 58 0 0.0 0.0 0.00 0.00 0.00 90 1013.7
20260509084340 58 0 0.0 0.0 0.00 0.00 0.00 90 1013.8
20260509083840 58 0 0.0 0.0 0.00 0.00 0.00 90 1013.7
20260509083340 58 0 0.0 0.0 0.00 0.00 0.00 91 1013.6
20260509082838 58 0 0.0 0.0 0.00 0.00 0.00 91 1013.5
20260509082341 58 0 0.0 1.0 0.00 0.00 0.00 91 1013.3
20260509081840 58 0 0.0 1.0 0.00 0.00 0.00 91 1013.3
20260509081335 57 0 0.0 0.0 0.00 0.00 0.00 91 1013.2
20260509080840 57 0 0.0 0.0 0.00 0.00 0.00 91 1013.4
20260509080341 57 0 0.0 0.0 0.00 0.00 0.00 91 1013.4
20260509075838 57 0 0.0 0.0 0.00 0.00 0.00 91 1013.5
20260509075335 57 0 0.0 0.0 0.00 0.00 0.00 90 1013.4
20260509074836 57 0 0.0 0.0 0.00 0.00 0.00 90 1013.5
20260509074336 57 0 0.0 0.0 0.00 0.00 0.00 90 1013.3
20260509073837 57 0 0.0 0.0 0.00 0.00 0.00 90 1013.2
20260509073338 57 0 0.0 0.0 0.00 0.00 0.00 89 1013.0
20260509072841 57 0 0.0 0.0 0.00 0.00 0.00 89 1013.0
20260509072336 57 0 0.0 0.0 0.00 0.00 0.00 89 1013.3
20260509071838 58 0 0.0 0.0 0.00 0.00 0.00 89 1013.2
20260509071342 58 0 0.0 0.0 0.00 0.00 0.00 89 1013.2
20260509070839 58 0 0.0 0.0 0.00 0.00 0.00 89 1013.3
20260509070337 58 0 0.0 0.0 0.00 0.00 0.00 89 1013.4
20260509065842 58 0 0.0 0.0 0.00 0.00 0.00 88 1013.7
20260509065341 58 0 0.0 0.0 0.00 0.00 0.00 88 1013.7
20260509064838 58 0 0.0 0.0 0.00 0.00 0.00 88 1013.9
20260509064339 59 0 0.0 0.0 0.00 0.00 0.00 88 1013.9
20260509063837 59 0 0.0 0.0 0.00 0.00 0.00 88 1014.0
20260509063337 59 0 0.0 0.0 0.00 0.00 0.00 88 1014.1
20260509062840 59 0 0.0 0.0 0.00 0.00 0.00 88 1014.2
20260509062344 59 0 0.0 0.0 0.00 0.00 0.00 89 1014.3
20260509061840 59 0 0.0 0.0 0.00 0.00 0.00 88 1014.4
20260509061341 58 0 0.0 0.0 0.00 0.00 0.00 89 1014.7
20260509060845 58 0 0.0 0.0 0.00 0.00 0.00 89 1014.7
20260509060342 58 0 0.0 0.0 0.00 0.00 0.00 89 1014.8
20260509055836 58 0 0.0 0.0 0.00 0.00 0.00 89 1014.8
20260509055340 58 0 0.0 0.0 0.00 0.00 0.00 89 1015.0
20260509054841 58 0 0.0 0.0 0.00 0.00 0.00 89 1014.8
20260509054336 58 0 0.0 0.0 0.00 0.00 0.00 89 1014.9
20260509053843 58 0 0.0 0.0 0.00 0.00 0.00 89 1014.8
20260509053336 58 0 0.0 0.0 0.00 0.00 0.00 89 1014.9
20260509052839 58 0 0.0 0.0 0.00 0.00 0.00 88 1014.8
20260509052343 58 0 0.0 0.0 0.00 0.00 0.00 88 1014.8
20260509051838 58 0 0.0 0.0 0.00 0.00 0.00 88 1014.8
20260509051336 58 0 0.0 0.0 0.00 0.00 0.00 88 1014.9
20260509050840 58 0 0.0 0.0 0.00 0.00 0.00 88 1015.0
20260509050340 58 0 0.0 0.0 0.00 0.00 0.00 87 1014.9
20260509045838 58 0 0.0 0.0 0.00 0.00 0.00 87 1015.0
20260509045343 59 0 0.0 0.0 0.00 0.00 0.00 88 1015.1
20260509044838 59 0 0.0 0.0 0.00 0.00 0.00 88 1015.0
20260509044341 58 0 0.0 0.0 0.00 0.00 0.00 87 1014.9
20260509043842 59 0 0.0 0.0 0.00 0.00 0.00 87 1015.1
20260509043335 59 0 0.0 0.0 0.00 0.00 0.00 87 1015.2
20260509042839 59 0 0.0 0.0 0.00 0.00 0.00 86 1014.9
20260509042337 59 0 0.0 0.0 0.00 0.00 0.00 86 1015.1
20260509041842 59 0 0.0 0.0 0.00 0.00 0.00 85 1015.1
20260509041341 59 0 0.0 0.0 0.00 0.00 0.00 85 1015.4
20260509040836 59 0 0.0 0.0 0.00 0.00 0.00 85 1015.5
20260509040339 59 0 0.0 0.0 0.00 0.00 0.00 85 1015.5
20260509035841 60 0 0.0 0.0 0.00 0.00 0.00 84 1015.5
20260509035340 60 0 0.0 0.0 0.00 0.00 0.00 84 1015.4
20260509034837 60 0 0.0 0.0 0.00 0.00 0.00 84 1015.6
20260509034339 60 0 0.0 0.0 0.00 0.00 0.00 84 1015.6
20260509033837 60 0 0.0 0.0 0.00 0.00 0.00 84 1015.7
20260509033338 60 0 0.0 0.0 0.00 0.00 0.00 83 1015.8
20260509032839 61 0 0.0 0.0 0.00 0.00 0.00 83 1015.8
20260509032340 61 0 0.0 0.0 0.00 0.00 0.00 82 1016.0
20260509031839 61 0 0.0 0.0 0.00 0.00 0.00 82 1015.9
20260509031337 61 0 0.0 0.0 0.00 0.00 0.00 82 1016.0
20260509030839 61 0 0.0 0.0 0.00 0.00 0.00 81 1016.0
20260509030337 61 0 0.0 0.0 0.00 0.00 0.00 82 1016.2
20260509025842 61 0 0.0 0.0 0.00 0.00 0.00 81 1016.2
20260509025336 62 0 0.0 0.0 0.00 0.00 0.00 80 1016.0
20260509024840 62 0 0.0 0.0 0.00 0.00 0.00 80 1016.1
20260509024340 62 0 0.0 0.0 0.00 0.00 0.00 79 1016.2
20260509023840 62 0 0.0 0.0 0.00 0.00 0.00 79 1016.1
20260509023334 62 0 0.0 0.0 0.00 0.00 0.00 79 1016.4
20260509022841 62 0 0.0 1.0 0.00 0.00 0.00 79 1016.3
20260509022341 62 0 0.0 1.0 0.00 0.00 0.00 79 1016.1
20260509021843 62 0 0.0 1.0 0.00 0.00 0.00 78 1016.1
20260509021341 63 0 0.0 0.0 0.00 0.00 0.00 78 1016.0
20260509020842 63 0 0.0 2.0 0.00 0.00 0.00 78 1016.1
20260509020340 63 0 0.0 2.0 0.00 0.00 0.00 77 1016.2
20260509015841 63 0 0.0 2.0 0.00 0.00 0.00 77 1015.9
20260509015341 63 0 0.0 2.0 0.00 0.00 0.00 77 1015.8
20260509014840 63 0 0.0 2.0 0.00 0.00 0.00 76 1015.9
20260509014342 63 0 0.0 2.0 0.00 0.00 0.00 76 1016.0
20260509013840 63 243 0.0 1.0 0.00 0.00 0.00 76 1016.0
20260509013340 63 0 0.0 2.0 0.00 0.00 0.00 75 1015.7
20260509012842 64 243 1.0 2.0 0.00 0.00 0.00 75 1015.7
20260509012336 64 0 0.0 2.0 0.00 0.00 0.00 75 1015.8
20260509011837 64 231 1.0 2.0 0.00 0.00 0.00 75 1015.8
20260509011340 64 0 0.0 2.0 0.00 0.00 0.00 74 1015.8
20260509010841 64 0 0.0 1.0 0.00 0.00 0.00 74 1015.8
20260509010341 64 0 0.0 2.0 0.00 0.00 0.00 74 1015.9
20260509005840 64 198 1.0 2.0 0.00 0.00 0.00 73 1015.6
20260509005337 64 0 0.0 2.0 0.00 0.00 0.00 73 1015.7
20260509004838 64 225 0.0 1.0 0.00 0.00 0.00 73 1015.7